Previsão horária em Aaruti

Hoje, 17 Maio, Segunda-feira

Tempo Temperatura Precipitação Vento Pressão Humidade
00:00 +7°C° 0.1 mm 3 m/s 711 mmHg 94%
01:00 +7°C° 0 mm 3 m/s 711 mmHg 94%
02:00 +5°C° 0 mm 3 m/s 712 mmHg 93%
03:00 +5°C° 0 mm 3 m/s 712 mmHg 93%
04:00 +5°C° 0 mm 4 m/s 712 mmHg 93%
05:00 +5°C° 0.2 mm 4 m/s 713 mmHg 93%
06:00 +5°C° 0.2 mm 4 m/s 713 mmHg 92%
07:00 +6°C° 0 mm 4 m/s 713 mmHg 92%
08:00 +6°C° 0.5 mm 5 m/s 713 mmHg 92%
09:00 +7°C° 0.5 mm 5 m/s 714 mmHg 93%
10:00 +7°C° 0.5 mm 5 m/s 714 mmHg 93%
11:00 +7°C° 0.3 mm 5 m/s 714 mmHg 91%
12:00 +8°C° 0.3 mm 6 m/s 715 mmHg 89%
13:00 +8°C° 0.3 mm 6 m/s 715 mmHg 88%
14:00 +9°C° 0.1 mm 6 m/s 715 mmHg 83%
15:00 +9°C° 0.1 mm 6 m/s 715 mmHg 79%
16:00 +10°C° 0.1 mm 6 m/s 715 mmHg 74%
17:00 +9°C° 0.2 mm 5 m/s 715 mmHg 79%
18:00 +9°C° 0.2 mm 5 m/s 716 mmHg 83%
19:00 +8°C° 0.2 mm 5 m/s 716 mmHg 88%
20:00 +7°C° 0.1 mm 4 m/s 716 mmHg 89%
21:00 +7°C° 0.1 mm 4 m/s 716 mmHg 90%
22:00 +7°C° 0.1 mm 3 m/s 717 mmHg 91%
23:00 +7°C° 0 mm 3 m/s 717 mmHg 91%

Amanhã, 18 Maio, Terça-feira

Tempo Temperatura Precipitação Vento Pressão Humidade
00:00 +7°C° 0 mm 3 m/s 717 mmHg 90%
01:00 +7°C° 0 mm 3 m/s 717 mmHg 90%
02:00 +7°C° 0.1 mm 3 m/s 717 mmHg 91%
03:00 +7°C° 0.1 mm 3 m/s 717 mmHg 92%
04:00 +7°C° 0.1 mm 3 m/s 717 mmHg 93%
05:00 +8°C° 0.2 mm 3 m/s 717 mmHg 93%
06:00 +7°C° 0.2 mm 4 m/s 718 mmHg 92%
07:00 +7°C° 0.2 mm 4 m/s 718 mmHg 91%
08:00 +8°C° 0.2 mm 4 m/s 718 mmHg 85%
09:00 +10°C° 0.2 mm 4 m/s 718 mmHg 78%
10:00 +11°C° 0.2 mm 4 m/s 718 mmHg 72%
11:00 +12°C° 0.2 mm 5 m/s 718 mmHg 65%
12:00 +13°C° 0.2 mm 5 m/s 718 mmHg 59%
13:00 +13°C° 0.2 mm 5 m/s 718 mmHg 53%
14:00 +13°C° 0.2 mm 5 m/s 718 mmHg 53%
15:00 +13°C° 0.2 mm 5 m/s 718 mmHg 54%
16:00 +13°C° 0.2 mm 5 m/s 718 mmHg 55%
17:00 +12°C° 0.2 mm 4 m/s 718 mmHg 63%
18:00 +11°C° 0.2 mm 4 m/s 718 mmHg 70%
19:00 +9°C° 0.2 mm 3 m/s 719 mmHg 78%
20:00 +8°C° 0.2 mm 2 m/s 719 mmHg 84%
21:00 +6°C° 0.2 mm 2 m/s 719 mmHg 90%
22:00 +6°C° 0.2 mm 1 m/s 720 mmHg 95%
23:00 +6°C° 0 mm 1 m/s 720 mmHg 95%

Depois de amanhã, 19 Maio, Quarta-feira

Tempo Temperatura Precipitação Vento Pressão Humidade
00:00 +5°C° 0 mm 1 m/s 720 mmHg 96%
01:00 +5°C° 0 mm 1 m/s 720 mmHg 96%
02:00 +5°C° 0 mm 1 m/s 720 mmHg 96%
03:00 +5°C° 0 mm 1 m/s 720 mmHg 96%
04:00 +4°C° 0 mm 1 m/s 720 mmHg 96%
05:00 +5°C° 0 mm 1 m/s 720 mmHg 93%
06:00 +7°C° 0 mm 1 m/s 721 mmHg 91%
07:00 +8°C° 0 mm 1 m/s 721 mmHg 88%
08:00 +9°C° 0.1 mm 1 m/s 721 mmHg 80%
09:00 +10°C° 0.1 mm 2 m/s 720 mmHg 72%
10:00 +13°C° 0.1 mm 2 m/s 720 mmHg 65%
11:00 +12°C° 0.6 mm 3 m/s 720 mmHg 67%
12:00 +12°C° 0.6 mm 3 m/s 720 mmHg 69%
13:00 +12°C° 0.6 mm 3 m/s 719 mmHg 72%
14:00 +12°C° 0.7 mm 3 m/s 719 mmHg 76%
15:00 +11°C° 0.7 mm 3 m/s 719 mmHg 80%
16:00 +10°C° 0.7 mm 2 m/s 719 mmHg 85%
17:00 +10°C° 0.3 mm 2 m/s 719 mmHg 86%
18:00 +9°C° 0.3 mm 2 m/s 719 mmHg 88%
19:00 +8°C° 0.3 mm 2 m/s 719 mmHg 90%
20:00 +8°C° 0.3 mm 2 m/s 720 mmHg 92%
21:00 +7°C° 0.3 mm 3 m/s 720 mmHg 94%
22:00 +5°C° 0.3 mm 3 m/s 721 mmHg 96%
23:00 +6°C° 0.2 mm 2 m/s 721 mmHg 96%

20 Maio, Quinta-feira

Tempo Temperatura Precipitação Vento Pressão Humidade
00:00 +6°C° 0.2 mm 2 m/s 721 mmHg 96%
01:00 +6°C° 0.2 mm 2 m/s 721 mmHg 96%
02:00 +6°C° 0.4 mm 2 m/s 722 mmHg 96%
03:00 +6°C° 0.4 mm 2 m/s 722 mmHg 96%
04:00 +6°C° 0.4 mm 2 m/s 722 mmHg 97%
05:00 +6°C° 0.8 mm 2 m/s 722 mmHg 97%
06:00 +6°C° 0.8 mm 2 m/s 723 mmHg 97%
07:00 +6°C° 0.8 mm 2 m/s 723 mmHg 97%
08:00 +7°C° 0.2 mm 2 m/s 724 mmHg 95%
09:00 +7°C° 0.2 mm 2 m/s 724 mmHg 93%
10:00 +8°C° 0.2 mm 2 m/s 724 mmHg 91%
11:00 +9°C° 0.4 mm 2 m/s 724 mmHg 86%
12:00 +10°C° 0.4 mm 2 m/s 724 mmHg 80%
13:00 +13°C° 0.4 mm 2 m/s 724 mmHg 75%
14:00 +13°C° 0.4 mm 2 m/s 724 mmHg 72%
15:00 +13°C° 0.4 mm 2 m/s 724 mmHg 70%
16:00 +14°C° 0.4 mm 2 m/s 724 mmHg 68%
17:00 +13°C° 0.2 mm 2 m/s 724 mmHg 72%
18:00 +12°C° 0.2 mm 1 m/s 724 mmHg 76%
19:00 +12°C° 0.2 mm 1 m/s 724 mmHg 81%
20:00 +10°C° 0 mm 1 m/s 724 mmHg 84%
21:00 +8°C° 0 mm 1 m/s 724 mmHg 88%
22:00 +7°C° 0 mm 1 m/s 724 mmHg 92%
23:00 +6°C° 0 mm 1 m/s 724 mmHg 92%

21 Maio, Sexta-feira

Tempo Temperatura Precipitação Vento Pressão Humidade
00:00 +6°C° 0 mm 1 m/s 723 mmHg 93%
01:00 +5°C° 0 mm 1 m/s 723 mmHg 93%
02:00 +5°C° 0 mm 1 m/s 723 mmHg 94%
03:00 +4°C° 0 mm 0 m/s 722 mmHg 94%
04:00 +3°C° 0 mm 0 m/s 722 mmHg 94%
05:00 +4°C° 0 mm 0 m/s 722 mmHg 91%
06:00 +5°C° 0 mm 0 m/s 721 mmHg 88%
07:00 +7°C° 0 mm 0 m/s 721 mmHg 86%
08:00 +9°C° 0 mm 0 m/s 721 mmHg 75%
09:00 +12°C° 0 mm 1 m/s 720 mmHg 64%
10:00 +15°C° 0 mm 1 m/s 720 mmHg 54%
11:00 +16°C° 0 mm 1 m/s 719 mmHg 48%
12:00 +18°C° 0 mm 2 m/s 719 mmHg 41%
13:00 +19°C° 0 mm 2 m/s 718 mmHg 35%
14:00 +20°C° 0 mm 3 m/s 717 mmHg 36%
15:00 +20°C° 0 mm 3 m/s 717 mmHg 37%
16:00 +21°C° 0 mm 3 m/s 716 mmHg 38%
17:00 +19°C° 0 mm 3 m/s 716 mmHg 47%
18:00 +18°C° 0 mm 3 m/s 715 mmHg 57%
19:00 +16°C° 0 mm 2 m/s 715 mmHg 66%
20:00 +15°C° 0.2 mm 2 m/s 715 mmHg 74%
21:00 +13°C° 0.2 mm 3 m/s 715 mmHg 81%
22:00 +11°C° 0.2 mm 3 m/s 715 mmHg 88%
23:00 +11°C° 2.1 mm 4 m/s 716 mmHg 91%

22 Maio, Sábado

Tempo Temperatura Precipitação Vento Pressão Humidade
00:00 +9°C° 2.1 mm 5 m/s 716 mmHg 93%
01:00 +9°C° 2.1 mm 6 m/s 716 mmHg 95%
02:00 +8°C° 1.8 mm 5 m/s 716 mmHg 95%
03:00 +7°C° 1.8 mm 4 m/s 716 mmHg 95%
04:00 +7°C° 1.8 mm 3 m/s 716 mmHg 95%
05:00 +7°C° 1 mm 3 m/s 717 mmHg 95%
06:00 +5°C° 1 mm 4 m/s 717 mmHg 95%
07:00 +5°C° 1 mm 4 m/s 718 mmHg 95%
08:00 +7°C° 0 mm 4 m/s 717 mmHg 80%
09:00 +9°C° 0 mm 5 m/s 717 mmHg 65%
10:00 +12°C° 0 mm 5 m/s 717 mmHg 51%
11:00 +13°C° 0 mm 6 m/s 716 mmHg 47%
12:00 +14°C° 0 mm 6 m/s 716 mmHg 43%
13:00 +15°C° 0 mm 6 m/s 715 mmHg 38%
14:00 +15°C° 0 mm 6 m/s 715 mmHg 40%
15:00 +15°C° 0 mm 5 m/s 715 mmHg 42%
16:00 +15°C° 0 mm 5 m/s 715 mmHg 44%
17:00 +14°C° 0 mm 5 m/s 715 mmHg 50%
18:00 +13°C° 0 mm 4 m/s 715 mmHg 56%
19:00 +11°C° 0 mm 4 m/s 715 mmHg 62%
20:00 +10°C° 0.1 mm 3 m/s 716 mmHg 69%
21:00 +9°C° 0.1 mm 3 m/s 716 mmHg 75%
22:00 +8°C° 0.1 mm 3 m/s 716 mmHg 81%
23:00 +8°C° 0.1 mm 3 m/s 716 mmHg 83%
Mostrar mais

Necessitamos do seu Consentimento

A Meteoprog e os seus Fornecedores de Serviços podem armazenar e aceder a dados pessoais como cookies, identificadores do dispositivo ou outras tecnologias semelhantes existentes no seu dispositivo e processar estes dados para personalizar conteúdos e anúncios, assim como funcionalidades nas redes sociais e análise de tráfego.

  • Armazenar e/ou aceder a informações no seu dispositivo

    Os cookies, identificadores do dispositivo ou outras informações podem ser armazenados ou acedidos no seu dispositivo, para os fins acima indicados.

  • Anúncios e conteúdos personalizados, medição de anúncios e conteúdos, dados sobre o público-alvo e desenvolvimento de produtos

    Os anúncios e os conteúdos podem ser personalizados com base num perfil. Podem ser adicionados dados adicionais para uma maior personalização dos anúncios e dos conteúdos. A eficácia dos anúncios e dos conteúdos pode ser medida. Podem ser obtidas informações sobre o público que visualizou os anúncios e os conteúdos. Estes dados podem ser usados para desenvolver ou melhorar sistemas, softwares ou a experiência do utilizador.

Ao clicar em "Eu concordo”, permitirá o uso de cookies, identificadores do dispositivo e web beacons mencionados ou outras tecnologias semelhantes. As configurações do navegador do seu dispositivo podem ser alteradas.

Para certos fins, podem ser invocados interesses legítimos ao invés de consentimento. Pode ler mais informação sobre este assunto na nossa Política de Privacidade e Cookies.